Ciro Casadei

Chefscout - Vicenza
7 Nov 2027
Sonntag
Verarbeitung

Persönlichkeit

Anpassungsfähigkeit (5) Ehrgeiz (7) Kontroverse (1) Loyalität (10) Druck (4) Professionalität (1) Fairness (17) Temperament (1)

Profil

Trainerstil Demokratisch
Lizenz Kontinentale A
Entschlossenheit 10
Menschenführung 6
Motivation 3
Disziplin 3
Arbeitszufriedenheit
100%
Ermüdung
0%
Rolle Chefscout
Gehalt 22.5K p/W
Vertrag 14.03.2029

Leistung

Verhalten Gut
Trainingseffektivität
31%
Spielerentwicklung
40%
Verletzungsprävention
25%
Taktische Umsetzung
30%

Aktuell beobachtet

96
Spieler Verein Status Fähigkeit Vertrauen Beobachtet Zuletzt beobachtet Letzte Stimme
Matteo Sorzi Carpi Aktiv 104 / 113 40% 5 07.08.2027 -
Roberto Ramírez Godoy Cruz Aktiv 125 / 111 40% 7 07.08.2027 -
Ruly Grimsby Town Aktiv 112 / 112 40% 1 07.08.2027 -
Matías Borgogno San Martín SJ Aktiv 124 / 126 40% 2 05.08.2027 -
Nahuel Galardi Maipú Aktiv 122 / 130 40% 1 05.08.2027 -
Matías Budiño Colón Aktiv 108 / 103 40% 1 05.08.2027 -
Niccolò Chiorra Casarano Aktiv 102 / 102 40% 6 04.08.2027 -
Matteo Rizzo Campobasso Aktiv 117 / 126 40% 1 04.08.2027 -
Andrea Zaccagno Torres Aktiv 113 / 128 40% 4 03.08.2027 -
Joan Femenías Penafiel Aktiv 119 / 108 40% 1 03.08.2027 -
Egoitz Arana Real Sociedad Aktiv 109 / 106 40% 1 03.08.2027 -
Frankarlos Benítez Caracas Aktiv 113 / 129 40% 3 31.07.2027 -
Luca Gemello Perugia Aktiv 116 / 119 40% 3 30.07.2027 -
Elia Boseggia Novara Aktiv 112 / 123 40% 2 30.07.2027 -
Beycker Velásquez Zamora Aktiv 103 / 123 40% 5 28.07.2027 -
Santiago Roggero Gimnasia y Esgrima Aktiv 116 / 107 40% 3 28.07.2027 -
Jerónimo Pourtau Estudiantes Aktiv 118 / 131 40% 1 28.07.2027 -
Davide Merelli Crotone Aktiv 104 / 117 40% 2 27.07.2027 -
Italo Espinoza San Martín Aktiv 104 / 97 40% 3 27.07.2027 -
Lorenzo Andrenacci Lumezzane Aktiv 109 / 119 40% 4 26.07.2027 -
Francisco Salerno Defensores Unidos Aktiv 109 / 123 40% 3 26.07.2027 -
Emiliano González BATE Aktiv 114 / 132 40% 2 26.07.2027 -
Tommaso Nobile Renate Aktiv 113 / 101 40% 5 25.07.2027 -
Alejandro Araque Deportivo Tachira Aktiv 112 / 120 40% 3 23.07.2027 -
Daniel Sappa San Miguel Aktiv 109 / 122 40% 3 21.07.2027 -
Federico Del Frate Virtus Entella Aktiv 111 / 118 40% 2 19.07.2027 -
Matías Tagliamonte Racing Club Aktiv 125 / 114 40% 1 19.07.2027 -
Gianluca Saro Foggia Aktiv 114 / 106 40% 4 18.07.2027 -
Cristopher Fiermarin Defensa y Justicia Aktiv 121 / 125 40% 1 18.07.2027 -
Sergio Barlocco Trento Aktiv 112 / 105 40% 3 17.07.2027 -
Marios Siabanis Volos NPS Aktiv 121 / 121 40% 1 16.07.2027 -
Álvaro Montero Boca Juniors Aktiv 128 / 141 40% 1 16.07.2027 -
Samuele Vitale Ascoli Aktiv 121 / 119 40% 3 15.07.2027 -
Facundo Vila Estudiantes Aktiv 101 / 97 40% 1 15.07.2027 -
Kristjan Matošević Triestina Aktiv 116 / 107 40% 7 10.07.2027 -
José Álvarez Arsenal Tula Aktiv 121 / 135 40% 1 10.07.2027 -
Lorenco Šimić Avellino Aktiv 120 / 121 40% 1 10.07.2027 -
Tomás Porra Barracas Central Aktiv 109 / 113 40% 1 10.07.2027 -
Leonardo Marson Gubbio Aktiv 104 / 98 40% 3 07.07.2027 -
Gady Beyuku Modena Aktiv 119 / 119 40% 1 05.07.2027 -
Simone Potop AlbinoLeffe Aktiv 100 / 94 40% 1 05.07.2027 -
Rio Shipston Sheffield Wednesday Aktiv 109 / 116 40% 1 05.07.2027 -
Sergey Volkov Rodina Aktiv 101 / 117 40% 2 04.07.2027 -
Lévi Ntumba Slavia Sofia Aktiv 102 / 103 40% 3 03.07.2027 -
Vitaly Gudiev Akron Aktiv 102 / 122 40% 2 03.07.2027 -
Rustam Yatimov Rostov Aktiv 129 / 116 40% 1 02.07.2027 -
Javier Bustillos Los Andes Aktiv 111 / 115 40% 1 29.06.2027 -
Daniele Sommariva Arzignano Aktiv 103 / 109 40% 1 29.06.2027 -
Ignacio Colombo Zabbar St. Patrick Aktiv 101 / 103 40% 3 28.06.2027 -
Elia Summa Picerno Aktiv 109 / 116 40% 2 23.06.2027 -
Emilio Di Fulvio Colegiales Aktiv 112 / 97 40% 2 23.06.2027 -
Nicolás Schiavi Carrarese Aktiv 124 / 118 40% 2 22.06.2027 -
Mimeirhel Benita Heracles Aktiv 119 / 127 40% 1 22.06.2027 -
Daniil Frolkin Fakel Aktiv 110 / 119 40% 2 21.06.2027 -
Mauro Casoli Giugliano Aktiv 111 / 112 40% 1 20.06.2027 -
Daniel Bachmann Watford Aktiv 126 / 111 40% 1 20.06.2027 -
Fabrizio Alastra Altamura Aktiv 109 / 117 40% 1 19.06.2027 -
Mathew Hudson Oldham Athletic Aktiv 96 / 105 40% 2 17.06.2027 -
Nikita Medvedev Nizhniy Novgorod Aktiv 115 / 97 40% 1 16.06.2027 -
Andrea Tiritiello Virtus Entella Aktiv 122 / 112 40% 3 15.06.2027 -
Sheikh Sibi Virtus Verona Aktiv 101 / 113 40% 2 15.06.2027 -
Luis Del Pino Mago Caracas Aktiv 128 / 115 40% 1 15.06.2027 -
Islam Imamov SKA Khabarovsk Aktiv 88 / 86 40% 1 15.06.2027 -
Alberto Spagnoli Union Brescia Aktiv 111 / 97 40% 1 14.06.2027 -
Luca Maiorano Ospitaletto Aktiv 106 / 93 40% 1 14.06.2027 -
Giuseppe Panico Foggia Aktiv 121 / 101 40% 1 14.06.2027 -
Giulio Frisenna Cittadella Verloren 89 / 96 72% 1 01.06.2027 Befürworten
Yohann Magnin CSKA 1948 Aktiv 116 / 134 40% 2 31.01.2027 -
Thulani Erasmus Ajax Cape Town Aktiv 120 / 114 40% 2 31.01.2027 -
Ilja Tuseev Chelyabinsk Aktiv 93 / 112 40% 1 31.01.2027 -
Fernando Fonseca Leixões Aktiv 112 / 118 40% 1 31.01.2027 -
Ognjen Gašević CSKA 1948 Aktiv 125 / 98 40% 1 29.01.2027 -
Luca Vignali Virtus Entella Aktiv 123 / 108 40% 1 29.01.2027 -
Lorenzo Carissoni Padova Aktiv 127 / 117 40% 1 29.01.2027 -
Hakeem Odoffin Luton Town Aktiv 117 / 122 40% 2 28.01.2027 -
Kees de Boer Salernitana Aktiv 109 / 121 40% 1 28.01.2027 -
Andile Phiri Ajax Cape Town Aktiv 127 / 96 40% 1 28.01.2027 -
Bogdan Ovsyannikov Orenburg Aktiv 111 / 121 40% 1 26.01.2027 -
Victor De Lucia Casertana Aktiv 98 / 88 40% 1 24.01.2027 -
Mingiyan Beveev Baltika Aktiv 105 / 128 40% 1 24.01.2027 -
Maksym Kovaliov Spartak 1918 Aktiv 105 / 122 40% 1 22.01.2027 -
Arthur Beroe Aktiv 106 / 116 40% 2 21.01.2027 -
Erick Mothiba Black Aces Aktiv 96 / 85 40% 2 20.01.2027 -
Nazarii Fedorivskyi Obolon Aktiv 102 / 110 40% 1 19.01.2027 -
Miloš Brnović Arsenal Tula Aktiv 107 / 113 40% 1 19.01.2027 -
Peter Kováčik Podbrezova Aktiv 101 / 116 40% 1 19.01.2027 -
Itumeleng Khune Free State Stars Aktiv 91 / 94 40% 1 17.01.2027 -
Alessio Pozzi Vis Pesaro Aktiv 84 / 97 40% 1 17.01.2027 -
Mattia Maita Benevento Aktiv 117 / 119 40% 1 16.01.2027 -
Andrea Sergio Mazza Giana Erminio Aktiv 85 / 108 40% 1 14.01.2027 -
Mark Assinor Kryvbas Aktiv 120 / 94 40% 1 12.01.2027 -
Valerio Boffelli Cavese Aktiv 99 / 106 40% 1 12.01.2027 -
Roman Vantukh LNZ Aktiv 105 / 103 40% 1 10.01.2027 -
Ivan Kaliuzhnyi Metalist Aktiv 125 / 123 40% 1 08.01.2027 -
Lindon Emërllahu Polissia Aktiv 108 / 134 40% 1 08.01.2027 -
Guillermo Benítez Cerro Porteno Aktiv 127 / 123 40% 1 03.08.2026 -